Regional Weather Roundup
Issued by NWS

Home | Current Version | Previous Version | Graphics & Text | Print | Product List | Glossary On
Versions: 1 2 3 4 5 6 7 8 9 10 11 12 13 14 15 16 17 18 19 20 21 22 23 24 25 26 27 28 29 30 31 32 33 34 35 36 37 38 39 40 41 42 43 44 45 46 47 48 49 50
000
ASUS43 KMKX 240459
RWRWI

WISCONSIN REGIONAL WEATHER ROUNDUP
NATIONAL WEATHER SERVICE MILWAUKEE/SULLIVAN WI
1100 PM CST MON JAN 23 2017

NOTE: "FAIR" INDICATES FEW OR NO CLOUDS BELOW 12,000 FEET WITH NO
SIGNIFICANT WEATHER AND/OR OBSTRUCTIONS TO VISIBILITY.

WIZ001-002-006>008-014>016-023>028-240600-
NORTHWEST WISCONSIN

CITY           SKY/WX    TMP DP  RH WIND       PRES   REMARKS
SUPERIOR ARPT  CLOUDY    33  32  96 SW3       29.83S
ASHLAND        CLOUDY    34  33  96 W3        29.82S
HAYWARD        CLOUDY    33  32  96 CALM      29.81S FOG
SIREN          CLOUDY    32  32  99 CALM      29.84R
CUMBERLAND     CLOUDY    32  30  93 W3        29.82R
RICE LAKE      CLOUDY    33  32  96 CALM      29.84R FOG
CHETEK         CLOUDY    32  32  99 CALM      29.83R
LADYSMITH      CLOUDY    33  32  99 CALM      29.83S FOG
EAU CLAIRE     CLOUDY    33  32  96 SW3       29.83R FOG
MENOMONIE        N/A    N/A N/A N/A MISG        N/A
NEW RICHMOND   CLOUDY    32  32 100 CALM      29.84S FOG
OSCEOLA        CLOUDY    32  32 100 W3        29.87R FOG
$$

WIZ003>005-009-010-017-018-240600-
NORTH CENTRAL WISCONSIN

CITY           SKY/WX    TMP DP  RH WIND       PRES   REMARKS
MANITOWISH WTR FOG       33  33 100 W3        29.78S VSB 1/2
ARBOR VITAE    CLOUDY    37  36  96 CALM      29.78S
WOODRUFF       CLOUDY    37  36  96 CALM      29.78S
RHINELANDER    CLOUDY    35  35 100 NW3       29.78S FOG
EAGLE RIVER    FOG       33  33 100 CALM      29.77R VSB 1/2
LAND O LAKES   CLOUDY    34  34 100 CALM      29.78S FOG
PHILLIPS       CLOUDY    32  32 100 CALM      29.79S
TOMAHAWK       CLOUDY    33  32  96 CALM      29.79S FOG
MEDFORD        CLOUDY    32  32  99 NW7       29.79S WCI  26
MERRILL        CLOUDY    34  34 100 CALM        N/A
$$

WIZ029-030-035-036-043>047-240600-
CENTRAL WISCONSIN

CITY           SKY/WX    TMP DP  RH WIND       PRES   REMARKS
WAUSAU         FOG       34  34 100 W3        29.78S VSB 1/2
MOSINEE        FOG       32  32 100 NW3       29.80S VSB 1/4
MARSHFIELD     CLOUDY    33  31  92 W8        29.80R FOG     WCI  26
STEVENS POINT  FOG       32  32 100 CALM      29.81R VSB 3/4
WAUPACA        CLOUDY    37  35  93 CALM      29.80S FOG
WAUTOMA        CLOUDY    34  33  96 W5        29.82R FOG     WCI  30
WISC RAPIDS    CLOUDY    34  34 100 W5        29.82R WCI  30
CAMP DOUGLAS   CLOUDY    32  32 100 NW6       29.83R WCI  26
$$

WIZ011>013-019>022-031-037>040-048>050-240600-
NORTHEAST WISCONSIN

CITY           SKY/WX    TMP DP  RH WIND       PRES   REMARKS
ANTIGO         CLOUDY    33  33 100 CALM      29.78S
SHAWANO        CLOUDY    36  34  92 CALM      29.79F
OCONTO         CLOUDY    33  33  99 CALM      29.80S VSB 1/2
STURGEON BAY   FOG       34  34 100 CALM      29.80  VSB 1
GREEN BAY      CLOUDY    36  35  96 CALM      29.80S
MANITOWOC      CLOUDY    36  34  93 CALM      29.80F
APPLETON       MOCLDY    34  34 100 NW6       29.78S WCI  29
CLINTONVILLE   CLOUDY    36  34  93 CALM      29.79S
OSHKOSH        CLOUDY    35  33  92 W5        29.79S WCI  31
$$

WIZ032>034-041-042-053>061-240600-
SOUTHWEST WISCONSIN

CITY           SKY/WX    TMP DP  RH WIND       PRES   REMARKS
LA CROSSE      CLOUDY    36  32  85 CALM      29.85S
SPARTA         CLOUDY    32  32 100 CALM      29.85R FOG
VIROQUA        CLOUDY    33  33 100 CALM      29.82S
BOSCOBEL       CLOUDY    35  32  88 CALM      29.86R
PRAIRIE DU CHI CLOUDY    34  31  90 CALM      29.85S
PLATTEVILLE    CLOUDY    35  33  92 NE3       29.83F
$$

WIZ056-057-062-063-064-067-068-240600-
SOUTH CENTRAL WISCONSIN

CITY           SKY/WX    TMP DP  RH WIND       PRES   REMARKS
REEDSBURG      CLOUDY    34  33  97 NW5       29.83S WCI  30
BARABOO/DELLS  CLOUDY    33  32  94 NW3       29.82S
LONE ROCK      NOT AVBL
MINERAL POINT  CLOUDY    36  34  93 CALM      29.83R
MADISON        CLOUDY    36  32  85 W3        29.83S
MIDDLETON      CLOUDY    36  36 100 CALM      29.83S
WATERTOWN      CLOUDY    35  35 100 CALM      29.81S FOG
MONROE         CLOUDY    34  32  93 NW3       29.82S
JANESVILLE     CLOUDY    36  36 100 NW3       29.83R
$$

WIZ051-052-058>065-066-070>072-240600-
SOUTHEAST WISCONSIN

CITY           SKY/WX    TMP DP  RH WIND       PRES   REMARKS
MILWAUKEE      CLOUDY    39  34  82 NW3       29.81S
WAUKESHA       CLOUDY    34  34 100 NW5       29.81S FOG     WCI  30
MILWAUKEE/TIMM CLOUDY    36  32  87 NW3       29.82R
RACINE         CLOUDY    38  34  85 CALM      29.83R
KENOSHA        CLOUDY    38  34  85 NW5       29.81S WCI  34
FOND DU LAC    CLOUDY    35  32  88 NW5       29.80S WCI  31
SHEBOYGAN      CLOUDY    34  32  92 CALM      29.80S
WEST BEND      CLOUDY    34  34 100 NW3       29.80S
JUNEAU         FOG       34  34  99 W3        29.82S VSB 3/4
$$

LSZ147-162-240600-
LAKE SUPERIOR

STATION/POSITION TIME  TEMP    WIND        PRES    WAVE
                       AIR SEA DIR/SP/G            HT/PER
                 (UTC) (F)     (DEG/KT/KT) (MB)    (FT/S)
DEVILS ISLAND    0400   33     220/  8/  9 1010.0R
PORT WING        0430   35     210/  3/  3 1010.2S
SAXON HARBOR     0440   35     190/  4/  5 1009.8S
$$

LMZ867-665-643>646-240600-
LAKE MICHIGAN

STATION/POSITION TIME  TEMP    WIND        PRES    WAVE
                       AIR SEA DIR/SP/G            HT/PER
                 (UTC) (F)     (DEG/KT/KT) (MB)    (FT/S)
NORTHPORT PIER   0440   33     340/  3/  6 1009.1S
SISTER BAY       0250   34        CALM       N/A
KEWAUNEE LAKESHO 0430   35     300/  2/  3 1008.6F
SHEBOYGAN LAKESH 0400   37     310/  4/  5 1009.4S
PORT WASHINGTON  0430   37     310/  2/  5 1010.2F
KENOSHA   LAKESH 0400   38     320/  2/  6 1009.8
$$

TC  - TEMPERATURE IN CELSIUS
VSB - VISIBILITY IN STATUTE MILES
WCI - WIND CHILL INDEX
HX  - HEAT INDEX





USA.gov is the U.S. government's official web portal to all federal, state and local government web resources and services.